Weather History for Hoonah, AK

Change the Weather History Date:

Friday, April 11, 2014

  Actual Average Record
Temperature  
Mean Temperature 36 °F -  
Max Temperature 45 °F 44 °F 54 °F (2012)
Min Temperature 26 °F 29 °F 24 °F (2002)
Degree Days  
Heating Degree Days 28    
Moisture  
Dew Point 23 °F    
Average Humidity 62    
Maximum Humidity 100    
Minimum Humidity 32    
Precipitation  
Precipitation 0.00 in - - ()
Sea Level Pressure  
Sea Level Pressure 30.21 in    
Wind  
Wind Speed 4 mph (East)    
Max Wind Speed 10 mph    
Max Gust Speed -    
Visibility 10 miles    
Events      
Averages and records for this station are not official NWS values.
T = Trace of Precipitation, MM = Missing Value Source: NWS Daily Summary

Daily Weather History Graph

Daily Weather History Graph

Search for Another Location

Airport:

Trip Planner

Search our weather history database for the weather conditions in past years. The results will help you decide how hot, cold, wet, or windy it might be!

Date:

Astronomy

Apr. 11, 2014 Rise Set
Actual Time 6:01 AM AKDT 8:05 PM AKDT
Civil Twilight 5:19 AM AKDT 8:48 PM AKDT
Nautical Twilight 4:25 AM AKDT 9:42 PM AKDT
Astronomical Twilight 3:19 AM AKDT 10:49 PM AKDT
Moon 4:14 PM AKDT (4/11) 4:44 AM AKDT (4/11)
Length of Visible Light 15h 29m
Length of Day
14h 04m
Waxing Gibbous, 88% of the Moon is Illuminated
Apr 11
Waxing Gibbous
Apr 14
Full
Apr 21
Last Quarter
Apr 28
New
May 6
First Quarter

Hourly Weather History & Observations

Time (AKDT) Temp. Windchill Dew Point Humidity Pressure Visibility Wind Dir Wind Speed Gust Speed Precip Events Conditions
12:56 AM 36.0 °F 32.1 °F 25.2 °F 65% 29.94 in 10.0 mi Variable 4.6 mph - N/A   Clear
1:56 AM 36.0 °F 32.1 °F 24.1 °F 62% 29.98 in 10.0 mi Variable 4.6 mph - N/A   Clear
2:56 AM 36.0 °F 33.3 °F 21.0 °F 55% 30.01 in 10.0 mi Variable 3.5 mph - N/A   Clear
3:56 AM 30.0 °F 26.5 °F 26.1 °F 85% 30.03 in 10.0 mi ESE 3.5 mph - N/A   Clear
4:56 AM 28.0 °F 22.8 °F 28.0 °F 100% 30.07 in 10.0 mi East 4.6 mph - N/A   Clear
5:56 AM 28.0 °F - 28.0 °F 100% 30.10 in 10.0 mi Calm Calm - N/A   Clear
6:56 AM 28.0 °F 24.2 °F 28.0 °F 100% 30.14 in 10.0 mi East 3.5 mph - N/A   Clear
7:56 AM 32.0 °F - 29.1 °F 89% 30.16 in 10.0 mi Calm Calm - N/A   Clear
8:56 AM 37.9 °F - 28.0 °F 68% 30.18 in 10.0 mi Calm Calm - N/A   Clear
9:56 AM 41.9 °F 39.0 °F 22.1 °F 45% 30.21 in 10.0 mi West 4.6 mph - N/A   Clear
10:56 AM 43.9 °F 39.9 °F 19.0 °F 37% 30.24 in 10.0 mi SW 6.9 mph - N/A   Clear
11:56 AM 43.9 °F 41.3 °F 20.1 °F 39% 30.26 in 10.0 mi East 4.6 mph - N/A   Clear
12:56 PM 45.0 °F 41.8 °F 18.1 °F 34% 30.27 in 10.0 mi Variable 5.8 mph - N/A   Clear
1:56 PM 45.9 °F 41.2 °F 17.1 °F 32% 30.29 in 10.0 mi SE 9.2 mph - N/A   Clear
2:56 PM 45.0 °F 41.8 °F 18.1 °F 34% 30.30 in 10.0 mi Variable 5.8 mph - N/A   Clear
3:56 PM 45.9 °F 40.8 °F 19.0 °F 34% 30.28 in 10.0 mi East 10.4 mph - N/A   Clear
4:56 PM 45.9 °F 41.2 °F 19.0 °F 34% 30.28 in 10.0 mi East 9.2 mph - N/A   Clear
5:56 PM 45.9 °F 43.6 °F 17.1 °F 32% 30.29 in 10.0 mi SE 4.6 mph - N/A   Clear
6:56 PM 45.0 °F 42.6 °F 17.1 °F 33% 30.28 in 10.0 mi East 4.6 mph - N/A   Clear
7:56 PM 36.9 °F 34.3 °F 28.0 °F 70% 30.30 in 10.0 mi NE 3.5 mph - N/A   Clear
8:56 PM 32.9 °F 27.5 °F 25.2 °F 73% 30.32 in 10.0 mi East 5.8 mph - N/A   Clear
9:56 PM 29.1 °F - 25.2 °F 85% 30.33 in 10.0 mi Calm Calm - N/A   Clear
10:56 PM 28.0 °F - 25.2 °F 89% 30.34 in 10.0 mi Calm Calm - N/A   Clear
11:56 PM 26.1 °F 20.5 °F 25.2 °F 96% 30.35 in 10.0 mi East 4.6 mph - N/A   Clear